sat.trackr.live / text

‹ back to catalog

STARLINK-33738

NORAD 63889 · 2025-094AB

PAYLOAD ACTIVE UNKNOWN

§ Identity

Operator
Country
US
Launch date
2025-05-10
Launch site
AFWTR
Launch vehicle
Mass (kg)
RCS (m²)

Purposes: comms

External: N2YO · Heavens-Above · Gunter

§ Orbital elements

Epoch: 2026-05-25T03:11:07.878912Z

Period
96.11 min
Inclination
70.0023°
Eccentricity
0.0002665
Mean motion
14.98337801 rev/d
Perigee alt
570.2 km
Apogee alt
573.9 km
Semi-major
6,950.2 km
B*
2.6717e-4
RAAN
41.6894°
Arg perigee
269.3083°
Mean anomaly
90.7771°
Rev number
5,887

§ Raw data

STARLINK-337381 63889U 25094AB  26145.13273008  .00003097  00000+0  26717-3 0  99902 63889  70.0023  41.6894 0002665 269.3083  90.7771 14.98337801 58873

JSON: /api/v1/satellites/63889 · /tle

For live sub-satellite position, see the globe view (requires WebGL).

§ Visibility from observer

Set your observer location to see the next 7 days of passes ≥ 10°. The values pass through the URL so the page stays shareable.

No JS? Fill the form by hand. The geolocation button needs JavaScript.